Weather History for KMKG - August, 2013

Change the Weather History Date:

Wednesday, August 28, 2013

  Actual Average Record
Temperature  
Mean Temperature 78 °F 68 °F  
Max Temperature 87 °F 77 °F 91 °F (1953)
Min Temperature 69 °F 59 °F 40 °F (1941)
Degree Days  
Heating Degree Days 0 1  
Month to date heating degree days 18 11  
Since 1 June heating degree days 87 88  
Since 1 July heating degree days 35 22  
Cooling Degree Days 13 4  
Month to date cooling degree days 129 155  
Year to date cooling degree days 507 491  
Since 1 June cooling degree days 447 462  
Growing Degree Days 29 (Base 50)    
Moisture  
Dew Point 70 °F    
Average Humidity 75    
Maximum Humidity 93    
Minimum Humidity 57    
Precipitation  
Precipitation 0.00 in 0.12 in 1.14 in (2004)
Month to date precipitation 1.88 3.04  
Year to date precipitation 31.19 20.23  
Snow  
Snow 0.00 in 0.00 in - ()
Month to date snowfall 0.0 0.0  
Since 1 June snowfall 0.0 0.0  
Since 1 July snowfall 0.0 0.0  
Snow Depth 0.00 in    
Sea Level Pressure  
Sea Level Pressure 29.92 in    
Wind  
Wind Speed 5 mph (North)    
Max Wind Speed 13 mph    
Max Gust Speed 16 mph    
Visibility 8 miles    
Events      
T = Trace of Precipitation, MM = Missing Value Source: NWS Daily Summary

Daily Weather History Graph

Daily Weather History Graph

Search for Another Location

Airport or City:

Trip Planner

Search our weather history database for the weather conditions in past years. The results will help you decide how hot, cold, wet, or windy it might be!

Date:

Astronomy

Aug. 28, 2013 Rise Set
Actual Time 7:05 AM EDT 8:26 PM EDT
Civil Twilight 6:35 AM EDT 8:55 PM EDT
Nautical Twilight 5:59 AM EDT 9:31 PM EDT
Astronomical Twilight 5:22 AM EDT 10:08 PM EDT
Moon 12:08 AM EDT (8/28) 3:07 PM EDT (8/28)
Length of Visible Light 14h 20m
Length of Day
13h 21m
Waning Gibbous, 47% of the Moon is Illuminated
Aug 28
Waning Gibbous
Sep 5
New
Sep 12
First Quarter
Sep 19
Full
Sep 26
Last Quarter

Hourly Weather History & Observations

Time (EDT) Temp. Heat Index Dew Point Humidity Pressure Visibility Wind Dir Wind Speed Gust Speed Precip Events Conditions
12:55 AM 75.9 °F - 73.0 °F 91% 29.81 in 7.0 mi Calm Calm - 0.00 in   Partly Cloudy
1:43 AM 75.2 °F - 71.6 °F 89% 29.81 in 2.5 mi Calm Calm - N/A   Clear
1:55 AM 75.0 °F - 72.0 °F 90% 29.80 in 1.8 mi Calm Calm - N/A   Partly Cloudy
2:03 AM 73.4 °F - 71.6 °F 94% 29.81 in 2.5 mi NW 3.5 mph - N/A   Partly Cloudy
2:32 AM 75.2 °F - 71.6 °F 89% 29.82 in 3.0 mi Calm Calm - N/A   Clear
2:55 AM 73.9 °F - 72.0 °F 93% 29.81 in 4.0 mi North 3.5 mph - N/A   Clear
3:55 AM 75.0 °F - 72.0 °F 90% 29.81 in 7.0 mi North 4.6 mph - N/A   Scattered Clouds
4:55 AM 75.0 °F - 72.0 °F 90% 29.83 in 5.0 mi North 3.5 mph - N/A   Mostly Cloudy
5:08 AM 75.2 °F - 71.6 °F 89% 29.84 in 5.0 mi North 8.1 mph - N/A   Mostly Cloudy
5:29 AM 75.2 °F - 71.6 °F 89% 29.86 in 4.0 mi NNE 5.8 mph - N/A   Overcast
5:45 AM 73.4 °F - 71.6 °F 94% 29.86 in 2.5 mi NNE 5.8 mph - N/A   Overcast
5:55 AM 73.9 °F - 72.0 °F 93% 29.85 in 2.0 mi North 4.6 mph - N/A   Overcast
6:39 AM 73.4 °F - 71.6 °F 94% 29.88 in 7.0 mi NNE 8.1 mph - N/A   Overcast
6:55 AM 73.9 °F - 71.1 °F 91% 29.87 in 8.0 mi NNE 11.5 mph - N/A   Overcast
7:51 AM 73.4 °F - 71.6 °F 94% 29.90 in 9.0 mi North 6.9 mph - N/A   Overcast
7:55 AM 73.9 °F - 71.1 °F 91% 29.90 in 8.0 mi North 5.8 mph - N/A   Overcast
8:46 AM 75.2 °F - 69.8 °F 83% 29.92 in 10.0 mi NNE 5.8 mph - N/A   Mostly Cloudy
8:55 AM 75.0 °F - 70.0 °F 84% 29.91 in 10.0 mi North 8.1 mph - N/A   Mostly Cloudy
9:55 AM 75.9 °F - 70.0 °F 82% 29.92 in 10.0 mi NNE 10.4 mph - N/A   Overcast
10:55 AM 75.9 °F - 70.0 °F 82% 29.93 in 10.0 mi NNE 5.8 mph - N/A   Overcast
11:41 AM 77.0 °F - 69.8 °F 78% 29.96 in 10.0 mi NNE 8.1 mph - N/A   Overcast
11:55 AM 77.0 °F - 70.0 °F 79% 29.95 in 10.0 mi NE 6.9 mph - N/A   Overcast
12:55 PM 79.0 °F - 70.0 °F 74% 29.96 in 10.0 mi Variable 5.8 mph - N/A   Overcast
1:03 PM 78.8 °F - 69.8 °F 74% 29.97 in 10.0 mi NNE 4.6 mph - N/A   Overcast
1:13 PM 78.8 °F - 69.8 °F 74% 29.98 in 10.0 mi NNE 4.6 mph - N/A   Overcast
1:20 PM 80.6 °F 83.9 °F 69.8 °F 70% 29.97 in 10.0 mi NNE 4.6 mph - N/A   Overcast
1:55 PM 80.1 °F 83.2 °F 70.0 °F 71% 29.96 in 10.0 mi North 4.6 mph - N/A   Overcast
2:29 PM 80.6 °F 83.9 °F 69.8 °F 70% 29.98 in 10.0 mi NE 5.8 mph - N/A   Overcast
2:55 PM 82.0 °F 85.5 °F 69.1 °F 65% 29.97 in 10.0 mi ENE 6.9 mph - N/A   Mostly Cloudy
3:55 PM 84.9 °F 88.8 °F 69.1 °F 59% 29.97 in 10.0 mi NE 4.6 mph - N/A   Mostly Cloudy
4:38 PM 86.0 °F 90.4 °F 69.8 °F 58% 29.98 in 10.0 mi ENE 11.5 mph - N/A   Mostly Cloudy
4:55 PM 86.0 °F 90.1 °F 69.1 °F 57% 29.97 in 10.0 mi NE 6.9 mph - N/A   Mostly Cloudy
5:00 PM 84.2 °F 87.3 °F 68.0 °F 58% 29.98 in 10.0 mi NE 5.8 mph - N/A   Mostly Cloudy
5:55 PM 82.9 °F 87.0 °F 70.0 °F 65% 29.97 in 10.0 mi West 6.9 mph - N/A   Scattered Clouds
6:55 PM 81.0 °F 84.1 °F 69.1 °F 67% 29.98 in 10.0 mi NW 5.8 mph - N/A   Scattered Clouds
7:55 PM 78.1 °F - 69.1 °F 74% 29.99 in 10.0 mi WNW 4.6 mph - N/A   Clear
8:55 PM 73.0 °F - 68.0 °F 84% 30.01 in 10.0 mi West 4.6 mph - N/A   Clear
9:55 PM 72.0 °F - 68.0 °F 87% 30.02 in 10.0 mi WNW 3.5 mph - N/A   Clear
10:55 PM 71.1 °F - 66.9 °F 87% 30.03 in 10.0 mi Calm Calm - N/A   Clear
11:55 PM 71.1 °F - 66.9 °F 87% 30.03 in 8.0 mi Calm Calm - N/A   Clear